Flag for Germany Weather past 2 weeks in Bad Oeynhausen, North Rhine-Westphalia, Germany

Now
73 °F

Passing clouds.


Feels Like: 77 °F
Forecast: 56 / 77 °F
Wind: 10 mph from South

Location: Bueckeburg

Current Time: Aug 4, 2015 at 6:19:30 AM

Latest Report: Aug 4, 2015 at 5:20 AM


Visibility: N/A

Pressure: 29.86 "Hg

Humidity: 53%

Dew point: 55 °F

Location of Bad OeynhausenLocation

Historic Weather in Bad Oeynhausen — Graph

°F

Bad Oeynhausen temperature yesterday

Maximum temperature yesterday: 88 °F (at 2:20 PM)
Minimum temperature yesterday: 54 °F (at 4:20 AM)
Average temperature yesterday: 73 °F

Past Weeks' High & Low Weather Summary

 TemperatureHumidityPressure
High88 °F (Aug 3, 2:20 PM)100% (Jul 20, 11:20 PM)30.15 "Hg (Jul 20, 11:20 PM)
Low46 °F (Jul 31, 4:20 AM)26% (Aug 2, 4:20 PM)29.47 "Hg (Jul 25, 12:20 PM)
Average64 °F69%29.87 "Hg
* Reported Jul 20 4:20 AM — Aug 4 4:20 AM, Bad Oeynhausen, Weather by CustomWeather, © 2015

Note: Actual official high and low records may vary slightly from our data, if they occured in-between our weather recording intervals... More about our weather records

Advertising

Bad Oeynhausen weather history for previous 24 hours

 ConditionsComfort  
Time TempWeatherWind HumidityBarometerVisibility
4:20 AM
Tue, Aug 4
73 °FPassing clouds.8 mph53%29.89 "HgN/A
3:20 AM75 °FPassing clouds.10 mph50%29.89 "HgN/A
2:20 AM75 °FPassing clouds.9 mph50%29.92 "HgN/A
1:20 AM75 °FPassing clouds.9 mph50%29.92 "HgN/A
12:20 AM72 °FPassing clouds.7 mph61%29.92 "HgN/A
11:20 PM
Mon, Aug 3
73 °FPassing clouds.7 mph57%29.95 "HgN/A
10:20 PM75 °FPassing clouds.6 mph57%29.95 "HgN/A
9:20 PM77 °FPartly sunny.5 mph51%29.95 "HgN/A
8:20 PM84 °FScattered clouds.3 mph40%29.95 "HgN/A
7:20 PM88 °FPassing clouds.5 mph33%29.95 "HgN/A
6:20 PM88 °FScattered clouds.6 mph31%29.95 "HgN/A
5:20 PM88 °FScattered clouds.9 mph31%29.95 "HgN/A
4:20 PM88 °FScattered clouds.10 mph29%29.98 "HgN/A
3:20 PM88 °FScattered clouds.10 mph29%29.98 "HgN/A
2:20 PM88 °FScattered clouds.9 mph27%29.98 "HgN/A
1:20 PM86 °FPassing clouds.9 mph31%30.01 "HgN/A
12:20 PM82 °FPassing clouds.9 mph40%30.01 "HgN/A
11:20 AM79 °FPassing clouds.13 mph45%30.01 "HgN/A
10:20 AM75 °FPassing clouds.13 mph47%30.01 "HgN/A
9:20 AM73 °FPassing clouds.15 mph47%30.01 "HgN/A
8:20 AM70 °FPassing clouds.15 mph50%30.01 "HgN/A
7:20 AM66 °FScattered clouds.10 mph52%30.01 "HgN/A
6:20 AM55 °FPassing clouds.2 mph77%30.04 "HgN/A
Weather by CustomWeather, © 2015

See weather overviewHow to use our weather pages